Location: Clarion
(42.7316°N, 93.7330°W)
Time: 01:38:15
(UTC+00:00)

Cosmos 1766 Rocket - Pass Details

Date: 22 April 2026
Orbit: 597 x 626 km, 82.5° (Epoch: 20 May)

Event Time Altitude Azimuth Distance (km) Brightness Sun altitude
Rises 09:20:15 0° 352° (N) 2,877 7.4 -20.4°
Reaches altitude 10° 09:22:29 10° 352° (N) 1,964 6.5 -20.1°
Maximum altitude 09:26:50 88° 86° (E) 609 3.4 -19.5°
Enters shadow 09:29:27 23° 172° (S) 1,281 4.9 -19.1°
